Location: Kawakawa
(35.3830°S, 174.0670°E)
Time: 16:03:01
(UTC+13:00)

Vanguard 2 Rocket - All Passes

Search period start: 10 December 2019 00:00
Search period end: 20 December 2019 00:00
Orbit: 554 x 3326 km, 32.9° (Epoch: 09 December)

Date Brightness Start Highest point End Pass type
(mag) Time Alt. Az. Time Alt. Az. Time Alt. Az.
10 Dec - 06:46:06 10° NW 06:52:48 42° NNE 07:04:14 10° E daylight
10 Dec - 08:57:32 10° WNW 09:07:03 78° N 09:24:02 10° E daylight
10 Dec - 11:10:47 10° W 11:23:49 77° N 11:43:49 10° ENE daylight
10 Dec - 13:25:37 10° W 13:41:30 52° NNW 14:00:43 10° NE daylight
10 Dec - 15:44:36 10° W 15:58:10 24° NW 16:11:44 10° N daylight
11 Dec - 05:48:11 10° NNW 05:53:29 27° NE 06:01:34 10° E daylight
11 Dec - 07:58:29 10° WNW 08:06:31 69° NNE 08:21:09 10° E daylight
11 Dec - 10:11:06 10° W 10:22:19 80° N 10:41:07 10° ENE daylight
11 Dec - 12:25:05 10° W 12:39:37 61° NNW 12:59:28 10° NE daylight
11 Dec - 14:41:48 10° W 14:56:46 32° NW 15:13:03 10° NNE daylight
12 Dec - 04:51:24 10° NNE 04:54:31 14° NE 04:58:24 10° ENE visible
12 Dec - 06:59:46 10° NW 07:06:30 55° NNE 07:18:31 10° E daylight
12 Dec - 09:11:43 10° W 09:21:13 80° N 09:38:11 10° E daylight
12 Dec - 11:25:02 10° W 11:37:54 69° NNW 11:57:32 10° ENE daylight
12 Dec - 13:40:14 10° W 13:55:09 41° NNW 14:13:11 10° NNE daylight
12 Dec - 16:02:33 10° WNW 16:11:31 15° NW 16:20:36 10° NNW daylight
13 Dec - 06:01:24 10° NW 06:06:59 39° NNE 06:16:11 10° E daylight
13 Dec - 08:12:36 10° WNW 08:20:36 77° N 08:35:19 10° E daylight
13 Dec - 10:25:20 10° W 10:36:28 75° N 10:55:03 10° ENE daylight
13 Dec - 12:39:29 10° W 12:53:28 50° NNW 13:12:23 10° NE daylight
13 Dec - 14:57:45 10° W 15:10:15 23° NW 15:23:47 10° N daylight
14 Dec - 05:03:35 10° NNW 05:07:51 23° NE 05:14:00 10° E visible
14 Dec - 07:13:43 10° WNW 07:20:27 67° NNE 07:32:43 10° E daylight
14 Dec - 09:25:57 10° W 09:35:25 78° N 09:52:17 10° ENE daylight
14 Dec - 11:39:20 10° W 11:51:54 58° NNW 12:10:51 10° NE daylight
14 Dec - 13:55:21 10° W 14:08:48 30° NW 14:24:50 10° NNE daylight
15 Dec - 04:07:16 10° NNE 04:08:59 11° NE 04:10:54 10° ENE visible
15 Dec - 06:15:06 10° NW 06:20:45 52° NNE 06:30:31 10° E daylight
15 Dec - 08:26:48 10° W 08:34:47 79° N 08:49:28 10° E daylight
15 Dec - 10:39:36 10° W 10:50:34 66° NNW 11:08:43 10° ENE daylight
15 Dec - 12:54:11 10° W 13:07:17 38° NNW 13:24:41 10° NNE daylight
15 Dec - 15:16:12 10° WNW 15:23:52 14° NW 15:31:59 10° NNW daylight
16 Dec - 05:16:48 10° NW 05:21:27 35° NNE 05:28:42 10° E visible
16 Dec - 07:27:51 10° WNW 07:34:34 75° N 07:46:54 10° E daylight
16 Dec - 09:40:12 10° W 09:49:35 72° NNW 10:06:12 10° ENE daylight
16 Dec - 11:53:48 10° W 12:05:51 46° NNW 12:23:39 10° NE daylight
16 Dec - 14:11:33 10° W 14:22:31 21° NW 14:35:12 10° N daylight
17 Dec - 04:19:00 10° N 04:22:27 20° NE 04:27:00 10° E visible
17 Dec - 06:29:05 10° WNW 06:34:44 65° NNE 06:44:44 10° E daylight
17 Dec - 08:41:03 10° W 08:48:59 76° N 09:03:33 10° ENE daylight
17 Dec - 10:53:57 10° W 11:04:37 54° NNW 11:21:58 10° NE daylight
17 Dec - 13:09:28 10° W 13:21:08 28° NW 13:36:05 10° NNE daylight
18 Dec - 05:30:30 10° NW 05:35:17 49° NNE 05:43:04 10° E visible
18 Dec - 07:42:04 10° W 07:48:45 77° N 08:01:03 10° E daylight
18 Dec - 09:54:30 10° W 10:03:43 61° NNW 10:19:49 10° ENE daylight
18 Dec - 12:08:37 10° W 12:19:50 35° NNW 12:35:46 10° NNE daylight
18 Dec - 14:31:05 10° WNW 14:36:25 12° NW 14:42:08 10° NNW daylight
19 Dec - 04:32:10 10° NW 04:36:09 32° NNE 04:41:47 10° E visible
19 Dec - 06:43:13 10° WNW 06:48:53 73° N 06:58:56 10° E daylight
19 Dec - 08:55:19 10° W 09:03:10 68° NNW 09:17:27 10° ENE daylight
19 Dec - 11:08:30 10° W 11:18:42 42° NNW 11:34:39 10° NE daylight
19 Dec - 13:26:03 10° WNW 13:35:06 18° NW 13:45:57 10° N daylight
